Orbital Elements at Epoch 2459200.5 (2020-Dec-17.0) TDB
Reference: JPL 23 (heliocentric ecliptic J2000)
Element | Value | Uncertainty (1-sigma) | Units |
e | .07131618793110596 | 4.3402e-08 | |
a | 2.99588669860673 | 2.2557e-08 | au |
q | 2.782231479788592 | 1.3052e-07 | au |
i | 3.413018117587184 | 4.6543e-06 | deg |
node | 96.78684702784412 | 9.3247e-05 | deg |
peri | 200.2876730594838 | 0.00010082 | deg |
M | 205.6143378895028 | 3.9582e-05 | deg |
tp | 2460012.752333938272 (2023-Mar-09.25233394) | 0.00020971 | TDB |
period | 1894.028475315883 5.19 | 2.1391e-05 5.857e-08 | d yr |
n | .1900710600140052 | 2.1466e-09 | deg/d |
Q | 3.209541917424868 | 2.4165e-08 | au |
|
| | Orbit Determination Parameters
Additional Information
|